| time (UTC) | temp C | wind direction | speed KPH | gust KPH | rain 1hr cm | rain 24hr cm | rain mn cm | humidity % | barometer mb |
| 20260507124504 | 4 | 0 | 0.0 | 0.0 | 0.00 | 0.10 | 0.00 | 89 | 1012.6 |
| 20260507124004 | 4 | 0 | 0.0 | 0.0 | 0.00 | 0.10 | 0.00 | 91 | 1012.6 |
| 20260507123503 | 4 | 0 | 0.0 | 0.0 | 0.00 | 0.10 | 0.00 | 92 | 1012.7 |
| 20260507123217 | 4 | 0 | 0.0 | 0.0 | 0.00 | 0.13 | 0.00 | 92 | 1012.7 |
| 20260507122503 | 4 | 0 | 0.0 | 0.0 | 0.00 | 0.13 | 0.00 | 92 | 1012.6 |
| 20260507122004 | 4 | 0 | 0.0 | 0.0 | 0.00 | 0.13 | 0.00 | 91 | 1012.7 |
| 20260507121503 | 4 | 0 | 0.0 | 0.0 | 0.00 | 0.13 | 0.00 | 91 | 1012.7 |
| 20260507121006 | 4 | 0 | 0.0 | 0.0 | 0.00 | 0.13 | 0.00 | 93 | 1012.8 |
| 20260507120503 | 4 | 0 | 0.0 | 0.0 | 0.00 | 0.15 | 0.00 | 93 | 1012.9 |
| 20260507120005 | 4 | 0 | 0.0 | 0.0 | 0.00 | 0.15 | 0.00 | 93 | 1013.0 |
| 20260507115503 | 4 | 0 | 0.0 | 0.0 | 0.00 | 0.15 | 0.00 | 94 | 1012.9 |
| 20260507114718 | 5 | 0 | 0.0 | 0.0 | 0.00 | 0.15 | 0.00 | 94 | 1012.8 |
| 20260507114217 | 5 | 0 | 0.0 | 0.0 | 0.00 | 0.15 | 0.00 | 95 | 1012.9 |
| 20260507113718 | 5 | 0 | 0.0 | 0.0 | 0.00 | 0.18 | 0.00 | 95 | 1012.9 |
| 20260507113004 | 5 | 0 | 0.0 | 0.0 | 0.00 | 0.18 | 0.00 | 96 | 1012.8 |
| 20260507112503 | 5 | 0 | 0.0 | 0.0 | 0.00 | 0.18 | 0.00 | 96 | 1012.7 |
| 20260507112003 | 5 | 0 | 0.0 | 0.0 | 0.00 | 0.20 | 0.00 | 96 | 1012.6 |
| 20260507111504 | 5 | 0 | 0.0 | 0.0 | 0.00 | 0.20 | 0.00 | 96 | 1012.6 |
| 20260507111003 | 5 | 0 | 0.0 | 0.0 | 0.00 | 0.20 | 0.00 | 96 | 1012.4 |
| 20260507110503 | 5 | 0 | 0.0 | 0.0 | 0.00 | 0.20 | 0.00 | 96 | 1012.3 |
| 20260507110218 | 5 | 0 | 0.0 | 0.0 | 0.00 | 0.23 | 0.00 | 96 | 1012.2 |
| 20260507105503 | 5 | 0 | 0.0 | 0.0 | 0.00 | 0.23 | 0.00 | 96 | 1012.2 |
| 20260507105003 | 4 | 0 | 0.0 | 0.0 | 0.00 | 0.23 | 0.00 | 95 | 1012.1 |
| 20260507104504 | 4 | 0 | 0.0 | 0.0 | 0.00 | 0.23 | 0.00 | 95 | 1012.1 |
| 20260507104003 | 4 | 0 | 0.0 | 0.0 | 0.00 | 0.23 | 0.00 | 96 | 1012.1 |
| 20260507103503 | 4 | 0 | 0.0 | 0.0 | 0.00 | 0.25 | 0.00 | 96 | 1012.1 |
| 20260507103218 | 4 | 0 | 0.0 | 0.0 | 0.00 | 0.25 | 0.00 | 96 | 1012.0 |
| 20260507102503 | 4 | 0 | 0.0 | 0.0 | 0.00 | 0.25 | 0.00 | 96 | 1011.9 |
| 20260507102003 | 4 | 0 | 0.0 | 0.0 | 0.00 | 0.25 | 0.00 | 95 | 1011.9 |
| 20260507101717 | 4 | 0 | 0.0 | 0.0 | 0.00 | 0.28 | 0.00 | 95 | 1011.9 |
| 20260507101003 | 4 | 0 | 0.0 | 0.0 | 0.00 | 0.28 | 0.00 | 95 | 1011.9 |
| 20260507100503 | 4 | 5 | 0.0 | 1.6 | 0.00 | 0.28 | 0.00 | 96 | 1011.9 |
| 20260507100004 | 4 | 5 | 0.0 | 1.6 | 0.00 | 0.30 | 0.00 | 96 | 1012.0 |
| 20260507095718 | 4 | 0 | 0.0 | 0.0 | 0.00 | 0.30 | 0.00 | 95 | 1012.0 |
| 20260507095003 | 3 | 5 | 0.0 | 1.6 | 0.00 | 0.33 | 0.00 | 95 | 1012.0 |
| 20260507094503 | 3 | 5 | 0.0 | 1.6 | 0.00 | 0.33 | 0.00 | 95 | 1012.1 |
| 20260507094003 | 3 | 0 | 0.0 | 0.0 | 0.00 | 0.36 | 0.00 | 95 | 1012.0 |
| 20260507093503 | 3 | 0 | 0.0 | 0.0 | 0.00 | 0.36 | 0.00 | 95 | 1012.0 |
| 20260507093003 | 3 | 0 | 0.0 | 0.0 | 0.00 | 0.38 | 0.00 | 95 | 1012.1 |
| 20260507092503 | 3 | 0 | 0.0 | 0.0 | 0.00 | 0.38 | 0.00 | 95 | 1011.9 |
| 20260507092003 | 3 | 5 | 0.0 | 1.6 | 0.00 | 0.41 | 0.00 | 95 | 1012.0 |
| 20260507091717 | 3 | 5 | 0.0 | 1.6 | 0.00 | 0.41 | 0.00 | 95 | 1011.7 |
| 20260507091003 | 3 | 0 | 0.0 | 0.0 | 0.00 | 0.43 | 0.00 | 95 | 1012.1 |
| 20260507090717 | 3 | 0 | 0.0 | 0.0 | 0.00 | 0.43 | 0.00 | 95 | 1012.1 |
| 20260507090004 | 3 | 0 | 0.0 | 0.0 | 0.00 | 0.48 | 0.00 | 95 | 1012.2 |
| 20260507085503 | 3 | 0 | 0.0 | 0.0 | 0.00 | 0.48 | 0.00 | 95 | 1012.2 |
| 20260507085003 | 3 | 0 | 0.0 | 0.0 | 0.00 | 0.48 | 0.00 | 95 | 1012.0 |
| 20260507084503 | 3 | 0 | 0.0 | 0.0 | 0.00 | 0.51 | 0.00 | 95 | 1012.0 |
| 20260507084003 | 3 | 0 | 0.0 | 0.0 | 0.00 | 0.53 | 0.00 | 94 | 1012.0 |
| 20260507083503 | 3 | 0 | 0.0 | 0.0 | 0.00 | 0.53 | 0.00 | 94 | 1012.1 |
| 20260507083003 | 3 | 0 | 0.0 | 0.0 | 0.00 | 0.56 | 0.00 | 94 | 1011.9 |
| 20260507082719 | 3 | 0 | 0.0 | 0.0 | 0.00 | 0.56 | 0.00 | 94 | 1012.0 |
| 20260507082003 | 3 | 0 | 0.0 | 0.0 | 0.00 | 0.58 | 0.00 | 94 | 1012.0 |
| 20260507081504 | 3 | 0 | 0.0 | 0.0 | 0.00 | 0.61 | 0.00 | 94 | 1012.0 |
| 20260507081003 | 3 | 0 | 0.0 | 0.0 | 0.00 | 0.61 | 0.00 | 94 | 1012.0 |
| 20260507080503 | 3 | 0 | 0.0 | 0.0 | 0.00 | 0.61 | 0.00 | 94 | 1012.1 |
| 20260507080004 | 3 | 0 | 0.0 | 0.0 | 0.00 | 0.64 | 0.00 | 94 | 1012.1 |
| 20260507075503 | 3 | 0 | 0.0 | 0.0 | 0.00 | 0.64 | 0.00 | 94 | 1012.1 |
| 20260507075004 | 3 | 0 | 0.0 | 0.0 | 0.00 | 0.64 | 0.00 | 94 | 1012.0 |
| 20260507074503 | 3 | 0 | 0.0 | 0.0 | 0.00 | 0.66 | 0.00 | 94 | 1011.8 |
| 20260507074003 | 3 | 0 | 0.0 | 0.0 | 0.00 | 0.66 | 0.00 | 94 | 1011.8 |
| 20260507073504 | 3 | 0 | 0.0 | 0.0 | 0.00 | 0.69 | 0.00 | 94 | 1011.8 |
| 20260507073004 | 3 | 0 | 0.0 | 0.0 | 0.00 | 0.69 | 0.00 | 94 | 1011.8 |
| 20260507072503 | 3 | 0 | 0.0 | 0.0 | 0.00 | 0.71 | 0.00 | 93 | 1011.7 |
| 20260507072004 | 3 | 5 | 0.0 | 1.6 | 0.00 | 0.71 | 0.00 | 93 | 1011.9 |
| 20260507071504 | 4 | 5 | 0.0 | 1.6 | 0.00 | 0.74 | 0.00 | 93 | 1012.0 |
| 20260507071003 | 4 | 5 | 0.0 | 1.6 | 0.00 | 0.74 | 0.00 | 93 | 1011.9 |
| 20260507070503 | 4 | 5 | 0.0 | 1.6 | 0.00 | 0.76 | 0.00 | 93 | 1011.8 |
| 20260507070007 | 4 | 5 | 0.0 | 1.6 | 0.00 | 0.76 | 0.00 | 93 | 1011.8 |
| 20260507065718 | 4 | 5 | 0.0 | 1.6 | 0.00 | 0.79 | 0.00 | 93 | 1012.0 |
| 20260507065003 | 4 | 0 | 0.0 | 0.0 | 0.00 | 0.81 | 0.00 | 93 | 1012.1 |
| 20260507064504 | 5 | 0 | 0.0 | 0.0 | 0.00 | 0.84 | 0.00 | 93 | 1012.2 |
| 20260507064003 | 5 | 0 | 0.0 | 0.0 | 0.00 | 0.84 | 0.00 | 93 | 1012.2 |
| 20260507063503 | 5 | 0 | 0.0 | 0.0 | 0.00 | 0.86 | 0.00 | 93 | 1012.2 |
| 20260507063004 | 5 | 0 | 0.0 | 0.0 | 0.00 | 0.86 | 0.00 | 93 | 1012.2 |
| 20260507062503 | 5 | 0 | 0.0 | 0.0 | 0.00 | 0.89 | 0.00 | 94 | 1012.2 |
| 20260507062003 | 5 | 0 | 0.0 | 0.0 | 0.00 | 0.89 | 0.00 | 94 | 1012.2 |
| 20260507061503 | 5 | 0 | 0.0 | 0.0 | 0.00 | 0.91 | 0.00 | 94 | 1012.2 |
| 20260507061004 | 5 | 0 | 0.0 | 0.0 | 0.00 | 0.91 | 0.00 | 94 | 1012.3 |
| 20260507060503 | 5 | 0 | 0.0 | 0.0 | 0.00 | 0.91 | 0.00 | 94 | 1012.3 |
| 20260507060003 | 5 | 0 | 0.0 | 0.0 | 0.00 | 0.94 | 0.00 | 94 | 1012.3 |
| 20260507055503 | 5 | 0 | 0.0 | 0.0 | 0.00 | 0.94 | 0.00 | 94 | 1012.4 |
| 20260507055003 | 5 | 0 | 0.0 | 0.0 | 0.00 | 0.94 | 0.00 | 94 | 1012.4 |
| 20260507054717 | 5 | 0 | 0.0 | 0.0 | 0.00 | 0.97 | 0.00 | 94 | 1012.5 |
| 20260507054003 | 5 | 0 | 0.0 | 0.0 | 0.00 | 0.97 | 0.00 | 94 | 1012.6 |
| 20260507053503 | 5 | 0 | 0.0 | 0.0 | 0.00 | 0.99 | 0.00 | 94 | 1012.6 |
| 20260507053004 | 5 | 0 | 0.0 | 0.0 | 0.00 | 1.02 | 0.00 | 94 | 1012.5 |
| 20260507052503 | 5 | 0 | 0.0 | 0.0 | 0.00 | 1.04 | 0.00 | 94 | 1012.6 |
| 20260507052003 | 5 | 0 | 0.0 | 0.0 | 0.00 | 1.07 | 0.00 | 94 | 1012.6 |
| 20260507051503 | 5 | 0 | 0.0 | 0.0 | 0.00 | 1.09 | 0.00 | 94 | 1012.6 |
| 20260507051003 | 5 | 0 | 0.0 | 0.0 | 0.00 | 1.12 | 0.00 | 94 | 1012.7 |
| 20260507050503 | 5 | 0 | 0.0 | 0.0 | 0.00 | 1.14 | 0.00 | 94 | 1012.7 |
| 20260507050003 | 5 | 0 | 0.0 | 0.0 | 0.00 | 1.19 | 0.00 | 94 | 1012.7 |
| 20260507045503 | 5 | 0 | 0.0 | 0.0 | 0.00 | 1.22 | 0.00 | 94 | 1012.7 |
| 20260507045003 | 5 | 0 | 0.0 | 0.0 | 0.00 | 1.24 | 0.00 | 94 | 1012.7 |
| 20260507044503 | 5 | 0 | 0.0 | 0.0 | 0.00 | 1.30 | 0.00 | 94 | 1012.9 |
| 20260507044003 | 5 | 0 | 0.0 | 0.0 | 0.00 | 1.32 | 0.00 | 94 | 1012.8 |
| 20260507043717 | 5 | 0 | 0.0 | 0.0 | 0.00 | 1.35 | 0.00 | 94 | 1012.9 |
| 20260507043003 | 5 | 0 | 0.0 | 0.0 | 0.00 | 1.37 | 0.00 | 94 | 1012.9 |
| 20260507042717 | 5 | 0 | 0.0 | 0.0 | 0.00 | 1.37 | 0.00 | 94 | 1012.9 |
| 20260507042003 | 6 | 0 | 0.0 | 0.0 | 0.00 | 1.42 | 0.00 | 94 | 1012.7 |
| 20260507041503 | 5 | 0 | 0.0 | 0.0 | 0.00 | 1.42 | 0.00 | 94 | 1012.8 |
| 20260507041003 | 6 | 0 | 0.0 | 0.0 | 0.00 | 1.45 | 0.00 | 94 | 1012.7 |
| 20260507040503 | 5 | 0 | 0.0 | 0.0 | 0.00 | 1.45 | 0.00 | 94 | 1012.8 |
| 20260507040004 | 5 | 0 | 0.0 | 0.0 | 0.00 | 1.45 | 0.00 | 94 | 1012.8 |
| 20260507035503 | 5 | 0 | 0.0 | 0.0 | 0.00 | 1.45 | 1.45 | 94 | 1012.6 |
| 20260507035003 | 5 | 0 | 0.0 | 0.0 | 0.00 | 1.45 | 1.45 | 94 | 1012.5 |
| 20260507034503 | 5 | 0 | 0.0 | 0.0 | 0.00 | 1.45 | 1.45 | 93 | 1012.6 |
| 20260507034003 | 5 | 0 | 0.0 | 0.0 | 0.00 | 1.45 | 1.45 | 94 | 1012.6 |
| 20260507033717 | 5 | 0 | 0.0 | 0.0 | 0.00 | 1.45 | 1.45 | 93 | 1012.5 |
| 20260507033003 | 5 | 0 | 0.0 | 0.0 | 0.00 | 1.47 | 1.45 | 93 | 1012.5 |
| 20260507032503 | 5 | 0 | 0.0 | 0.0 | 0.00 | 1.47 | 1.45 | 93 | 1012.5 |
| 20260507032003 | 5 | 0 | 0.0 | 0.0 | 0.00 | 1.47 | 1.45 | 93 | 1012.6 |
| 20260507031503 | 6 | 0 | 0.0 | 0.0 | 0.00 | 1.50 | 1.45 | 93 | 1012.6 |
| 20260507031003 | 6 | 0 | 0.0 | 0.0 | 0.00 | 1.52 | 1.45 | 93 | 1012.6 |
| 20260507030503 | 6 | 0 | 0.0 | 0.0 | 0.00 | 1.52 | 1.45 | 93 | 1012.7 |
| 20260507030005 | 6 | 0 | 0.0 | 0.0 | 0.00 | 1.55 | 1.45 | 93 | 1012.6 |
| 20260507025503 | 6 | 0 | 0.0 | 0.0 | 0.00 | 1.57 | 1.45 | 94 | 1012.5 |
| 20260507025003 | 6 | 0 | 0.0 | 0.0 | 0.00 | 1.57 | 1.45 | 94 | 1012.5 |
| 20260507024503 | 6 | 5 | 0.0 | 1.6 | 0.00 | 1.60 | 1.45 | 93 | 1012.6 |
| 20260507024003 | 6 | 5 | 0.0 | 1.6 | 0.00 | 1.63 | 1.45 | 93 | 1012.6 |
| 20260507023503 | 6 | 0 | 0.0 | 0.0 | 0.00 | 1.63 | 1.45 | 93 | 1012.6 |
| 20260507023003 | 6 | 0 | 0.0 | 0.0 | 0.00 | 1.65 | 1.45 | 93 | 1012.6 |
| 20260507022503 | 6 | 0 | 0.0 | 0.0 | 0.00 | 1.65 | 1.45 | 93 | 1012.7 |
| 20260507022003 | 6 | 0 | 0.0 | 0.0 | 0.00 | 1.65 | 1.45 | 93 | 1012.7 |
| 20260507021503 | 6 | 0 | 0.0 | 0.0 | 0.00 | 1.65 | 1.45 | 93 | 1012.7 |
| 20260507021003 | 6 | 0 | 0.0 | 0.0 | 0.00 | 1.68 | 1.45 | 93 | 1012.8 |
| 20260507020503 | 6 | 0 | 0.0 | 0.0 | 0.00 | 1.68 | 1.45 | 93 | 1012.9 |
| 20260507020011 | 6 | 5 | 0.0 | 1.6 | 0.00 | 1.68 | 1.45 | 93 | 1012.9 |
| 20260507015503 | 6 | 5 | 0.0 | 1.6 | 0.00 | 1.68 | 1.45 | 93 | 1012.9 |
| 20260507015003 | 6 | 5 | 0.0 | 1.6 | 0.00 | 1.68 | 1.45 | 93 | 1012.9 |
| 20260507014718 | 6 | 5 | 0.0 | 1.6 | 0.00 | 1.68 | 1.45 | 93 | 1013.0 |
| 20260507014003 | 6 | 5 | 0.0 | 1.6 | 0.00 | 1.68 | 1.45 | 93 | 1012.9 |
| 20260507013503 | 6 | 5 | 0.0 | 1.6 | 0.00 | 1.68 | 1.45 | 93 | 1012.9 |
| 20260507013003 | 6 | 0 | 0.0 | 0.0 | 0.00 | 1.68 | 1.45 | 93 | 1012.9 |
| 20260507012503 | 6 | 0 | 0.0 | 0.0 | 0.00 | 1.68 | 1.45 | 93 | 1012.6 |
| 20260507012003 | 6 | 0 | 0.0 | 0.0 | 0.00 | 1.70 | 1.45 | 93 | 1012.5 |
| 20260507011503 | 6 | 0 | 0.0 | 0.0 | 0.00 | 1.70 | 1.45 | 93 | 1012.5 |
| 20260507011003 | 6 | 0 | 0.0 | 0.0 | 0.00 | 1.70 | 1.45 | 93 | 1012.5 |
| 20260507010503 | 6 | 0 | 0.0 | 0.0 | 0.00 | 1.70 | 1.45 | 93 | 1012.4 |
| 20260507010219 | 6 | 0 | 0.0 | 0.0 | 0.00 | 1.73 | 1.45 | 93 | 1012.4 |
| 20260507005718 | 6 | 0 | 0.0 | 0.0 | 0.00 | 1.73 | 1.45 | 93 | 1012.3 |
| 20260507005003 | 6 | 0 | 0.0 | 0.0 | 0.00 | 1.75 | 1.45 | 93 | 1012.3 |
| 20260507004503 | 6 | 0 | 0.0 | 0.0 | 0.00 | 1.78 | 1.45 | 93 | 1012.2 |
| 20260507004003 | 6 | 0 | 0.0 | 0.0 | 0.00 | 1.83 | 1.45 | 93 | 1012.2 |
| 20260507003717 | 6 | 0 | 0.0 | 0.0 | 0.00 | 1.85 | 1.45 | 93 | 1012.1 |
| 20260507003003 | 6 | 0 | 0.0 | 0.0 | 0.00 | 1.88 | 1.45 | 93 | 1012.1 |
| 20260507002503 | 6 | 0 | 0.0 | 0.0 | 0.00 | 1.91 | 1.45 | 93 | 1012.0 |
| 20260507002003 | 6 | 0 | 0.0 | 0.0 | 0.00 | 1.93 | 1.45 | 93 | 1012.0 |
| 20260507001503 | 6 | 0 | 0.0 | 0.0 | 0.00 | 1.96 | 1.45 | 93 | 1012.0 |
| 20260507001003 | 6 | 0 | 0.0 | 0.0 | 0.00 | 1.98 | 1.45 | 93 | 1011.9 |
| 20260507000503 | 6 | 0 | 0.0 | 0.0 | 0.00 | 2.01 | 1.45 | 93 | 1011.9 |
| 20260507000006 | 6 | 0 | 0.0 | 0.0 | 0.00 | 2.06 | 1.45 | 93 | 1011.9 |
| 20260506235504 | 6 | 5 | 0.0 | 1.6 | 0.00 | 2.08 | 1.45 | 93 | 1011.9 |
| 20260506235003 | 6 | 5 | 0.0 | 1.6 | 0.00 | 2.11 | 1.45 | 93 | 1011.8 |
| 20260506234503 | 6 | 0 | 0.0 | 0.0 | 0.00 | 2.16 | 1.45 | 93 | 1011.9 |
| 20260506234218 | 6 | 0 | 0.0 | 0.0 | 0.00 | 2.16 | 1.45 | 93 | 1011.9 |
| 20260506233503 | 6 | 0 | 0.0 | 0.0 | 0.00 | 2.18 | 1.45 | 93 | 1011.9 |
| 20260506233003 | 6 | 0 | 0.0 | 0.0 | 0.00 | 2.21 | 1.45 | 93 | 1011.9 |
| 20260506232503 | 6 | 0 | 0.0 | 0.0 | 0.00 | 2.21 | 1.45 | 93 | 1011.9 |
| 20260506232218 | 6 | 0 | 0.0 | 0.0 | 0.00 | 2.24 | 1.45 | 93 | 1011.9 |
| 20260506231503 | 6 | 0 | 0.0 | 0.0 | 0.00 | 2.26 | 1.45 | 93 | 1011.6 |
| 20260506231005 | 6 | 355 | 0.0 | 3.2 | 0.00 | 2.29 | 1.45 | 93 | 1011.6 |
| 20260506230503 | 6 | 13 | 1.6 | 3.2 | 0.00 | 2.31 | 1.45 | 93 | 1011.6 |
| 20260506230004 | 6 | 4 | 1.6 | 3.2 | 0.00 | 2.31 | 1.45 | 93 | 1011.4 |
| 20260506225503 | 6 | 333 | 0.0 | 3.2 | 0.00 | 2.34 | 1.45 | 93 | 1011.4 |
| 20260506225003 | 6 | 333 | 1.6 | 3.2 | 0.00 | 2.36 | 1.45 | 93 | 1011.2 |
| 20260506224503 | 6 | 334 | 1.6 | 4.8 | 0.00 | 2.39 | 1.45 | 93 | 1011.1 |
| 20260506224003 | 6 | 330 | 1.6 | 4.8 | 0.00 | 2.41 | 1.45 | 93 | 1011.0 |
| 20260506223503 | 6 | 323 | 1.6 | 4.8 | 0.00 | 2.44 | 1.45 | 93 | 1011.1 |
| 20260506223003 | 6 | 316 | 1.6 | 3.2 | 0.00 | 2.44 | 1.45 | 93 | 1011.0 |
| 20260506222503 | 6 | 348 | 1.6 | 3.2 | 0.00 | 2.46 | 1.45 | 93 | 1011.0 |
| 20260506222003 | 6 | 344 | 1.6 | 4.8 | 0.00 | 2.49 | 1.45 | 93 | 1010.9 |
| 20260506221504 | 6 | 326 | 1.6 | 4.8 | 0.00 | 2.51 | 1.45 | 93 | 1010.8 |
| 20260506221003 | 6 | 331 | 1.6 | 4.8 | 0.00 | 2.54 | 1.45 | 93 | 1010.7 |
| 20260506220503 | 6 | 336 | 1.6 | 4.8 | 0.00 | 2.57 | 1.45 | 92 | 1010.5 |
| 20260506220003 | 6 | 332 | 3.2 | 6.4 | 0.00 | 2.59 | 1.45 | 92 | 1010.6 |
| 20260506215503 | 6 | 326 | 3.2 | 6.4 | 0.00 | 2.62 | 1.45 | 91 | 1010.6 |
| 20260506215003 | 6 | 332 | 3.2 | 6.4 | 0.00 | 2.64 | 1.45 | 91 | 1010.6 |
| 20260506214503 | 7 | 329 | 3.2 | 6.4 | 0.00 | 2.69 | 1.45 | 91 | 1010.4 |
| 20260506214003 | 7 | 303 | 3.2 | 4.8 | 0.00 | 2.72 | 1.45 | 91 | 1010.4 |
| 20260506213503 | 7 | 280 | 1.6 | 4.8 | 0.00 | 2.77 | 1.45 | 91 | 1010.3 |
| 20260506213003 | 8 | 279 | 1.6 | 4.8 | 0.00 | 2.79 | 1.45 | 91 | 1010.1 |
| 20260506212503 | 8 | 280 | 1.6 | 6.4 | 0.00 | 2.82 | 1.45 | 91 | 1010.0 |
| 20260506212217 | 8 | 279 | 1.6 | 6.4 | 0.00 | 2.84 | 1.45 | 91 | 1009.8 |
| 20260506211503 | 8 | 293 | 1.6 | 6.4 | 0.00 | 2.95 | 1.45 | 90 | 1009.4 |
| 20260506211003 | 8 | 313 | 3.2 | 6.4 | 0.00 | 3.00 | 1.45 | 89 | 1009.5 |
| 20260506210503 | 9 | 306 | 3.2 | 6.4 | 0.00 | 3.02 | 1.45 | 89 | 1009.4 |
| 20260506210005 | 9 | 272 | 3.2 | 6.4 | 0.00 | 3.02 | 1.45 | 88 | 1009.3 |
| 20260506205503 | 9 | 250 | 3.2 | 6.4 | 0.00 | 3.05 | 1.45 | 87 | 1009.2 |
| 20260506205217 | 9 | 227 | 3.2 | 11.3 | 0.00 | 3.05 | 1.45 | 86 | 1009.1 |
| 20260506204503 | 9 | 210 | 1.6 | 11.3 | 0.00 | 3.05 | 1.45 | 89 | 1009.0 |
| 20260506204003 | 9 | 235 | 0.0 | 3.2 | 0.00 | 3.05 | 1.45 | 89 | 1009.0 |
| 20260506203503 | 10 | 235 | 0.0 | 1.6 | 0.00 | 3.05 | 1.45 | 89 | 1009.0 |
| 20260506203217 | 10 | 235 | 0.0 | 1.6 | 0.00 | 3.05 | 1.45 | 89 | 1009.1 |
| 20260506202718 | 10 | 235 | 0.0 | 1.6 | 0.00 | 3.05 | 1.45 | 89 | 1009.1 |
| 20260506202003 | 10 | 235 | 0.0 | 1.6 | 0.00 | 3.05 | 1.45 | 90 | 1009.1 |
| 20260506201718 | 10 | 235 | 0.0 | 1.6 | 0.00 | 3.05 | 1.45 | 90 | 1009.1 |
| 20260506201217 | 10 | 235 | 0.0 | 1.6 | 0.00 | 3.05 | 1.45 | 89 | 1009.2 |
| 20260506200503 | 10 | 235 | 0.0 | 1.6 | 0.00 | 3.05 | 1.45 | 89 | 1009.1 |
| 20260506200003 | 10 | 235 | 0.0 | 1.6 | 0.00 | 3.05 | 1.45 | 88 | 1009.1 |
| 20260506195503 | 10 | 235 | 0.0 | 1.6 | 0.00 | 3.05 | 1.45 | 87 | 1009.1 |
| 20260506195003 | 10 | 0 | 0.0 | 0.0 | 0.00 | 3.05 | 1.45 | 87 | 1009.1 |
| 20260506194503 | 10 | 235 | 0.0 | 3.2 | 0.00 | 3.05 | 1.45 | 87 | 1009.1 |
| 20260506194217 | 10 | 235 | 0.0 | 3.2 | 0.00 | 3.05 | 1.45 | 88 | 1009.2 |
| 20260506193503 | 10 | 235 | 0.0 | 1.6 | 0.00 | 3.05 | 1.45 | 88 | 1009.2 |
| 20260506193217 | 10 | 235 | 0.0 | 1.6 | 0.00 | 3.05 | 1.45 | 88 | 1009.2 |
| 20260506192504 | 10 | 235 | 0.0 | 1.6 | 0.00 | 3.05 | 1.45 | 88 | 1009.1 |
| 20260506192003 | 10 | 238 | 0.0 | 3.2 | 0.00 | 3.05 | 1.45 | 88 | 1009.2 |
| 20260506191503 | 10 | 243 | 0.0 | 3.2 | 0.00 | 3.05 | 1.45 | 87 | 1009.1 |
| 20260506191003 | 10 | 22 | 0.0 | 1.6 | 0.00 | 3.05 | 1.45 | 88 | 1009.2 |
| 20260506190503 | 10 | 29 | 0.0 | 3.2 | 0.00 | 3.05 | 1.45 | 87 | 1009.1 |
| 20260506190218 | 10 | 30 | 0.0 | 3.2 | 0.00 | 3.05 | 1.45 | 87 | 1009.1 |
| 20260506185503 | 10 | 30 | 1.6 | 4.8 | 0.00 | 3.05 | 1.45 | 88 | 1009.1 |
| 20260506185219 | 10 | 32 | 1.6 | 4.8 | 0.00 | 3.05 | 1.45 | 87 | 1009.1 |
| 20260506184503 | 10 | 42 | 1.6 | 6.4 | 0.00 | 3.05 | 1.45 | 90 | 1009.0 |
| 20260506184003 | 9 | 56 | 1.6 | 6.4 | 0.00 | 3.05 | 1.45 | 89 | 1009.0 |
| 20260506183503 | 9 | 72 | 1.6 | 4.8 | 0.00 | 3.05 | 1.45 | 90 | 1009.1 |
| 20260506183004 | 9 | 82 | 0.0 | 3.2 | 0.00 | 3.05 | 1.45 | 91 | 1009.1 |
| 20260506182503 | 8 | 82 | 0.0 | 4.8 | 0.00 | 3.05 | 1.45 | 90 | 1009.3 |
| 20260506182003 | 8 | 82 | 0.0 | 4.8 | 0.00 | 3.05 | 1.45 | 89 | 1009.4 |
| 20260506181503 | 8 | 82 | 0.0 | 1.6 | 0.00 | 3.05 | 1.45 | 90 | 1009.4 |
| 20260506181003 | 8 | 82 | 0.0 | 1.6 | 0.00 | 3.05 | 1.45 | 90 | 1009.4 |
| 20260506180503 | 8 | 82 | 0.0 | 1.6 | 0.00 | 3.05 | 1.45 | 90 | 1009.4 |
| 20260506180004 | 8 | 82 | 0.0 | 1.6 | 0.00 | 3.05 | 1.45 | 89 | 1009.4 |
| 20260506175503 | 8 | 82 | 0.0 | 1.6 | 0.00 | 3.05 | 1.45 | 89 | 1009.3 |
| 20260506175218 | 8 | 82 | 0.0 | 1.6 | 0.00 | 3.05 | 1.45 | 89 | 1009.2 |
| 20260506174503 | 8 | 82 | 0.0 | 1.6 | 0.00 | 3.05 | 1.45 | 90 | 1009.3 |
| 20260506174003 | 8 | 82 | 0.0 | 1.6 | 0.00 | 3.05 | 1.45 | 90 | 1009.3 |
| 20260506173503 | 8 | 82 | 0.0 | 1.6 | 0.00 | 3.05 | 1.45 | 90 | 1009.4 |
| 20260506173004 | 8 | 82 | 0.0 | 1.6 | 0.00 | 3.05 | 1.45 | 90 | 1009.4 |
| 20260506172503 | 8 | 82 | 0.0 | 1.6 | 0.00 | 3.05 | 1.45 | 91 | 1009.4 |
| 20260506172003 | 8 | 82 | 0.0 | 1.6 | 0.00 | 3.05 | 1.45 | 91 | 1009.4 |
| 20260506171503 | 8 | 82 | 0.0 | 1.6 | 0.00 | 3.05 | 1.45 | 91 | 1009.4 |
| 20260506171003 | 8 | 82 | 0.0 | 1.6 | 0.00 | 3.05 | 1.45 | 91 | 1009.3 |
| 20260506170503 | 8 | 0 | 0.0 | 0.0 | 0.00 | 3.05 | 1.45 | 92 | 1009.5 |
| 20260506170218 | 8 | 82 | 0.0 | 1.6 | 0.00 | 3.05 | 1.45 | 92 | 1009.4 |
| 20260506165503 | 8 | 82 | 0.0 | 3.2 | 0.00 | 3.05 | 1.45 | 92 | 1009.3 |
| 20260506165003 | 8 | 82 | 0.0 | 3.2 | 0.00 | 3.05 | 1.45 | 91 | 1009.3 |
| 20260506164503 | 8 | 82 | 0.0 | 1.6 | 0.00 | 3.05 | 1.45 | 91 | 1009.1 |
| 20260506164003 | 8 | 82 | 0.0 | 1.6 | 0.00 | 3.05 | 1.45 | 91 | 1009.2 |
| 20260506163503 | 8 | 82 | 0.0 | 1.6 | 0.00 | 3.05 | 1.45 | 92 | 1009.0 |
| 20260506163003 | 8 | 82 | 0.0 | 1.6 | 0.00 | 3.05 | 1.45 | 92 | 1009.0 |
| 20260506162503 | 8 | 82 | 0.0 | 1.6 | 0.00 | 3.05 | 1.45 | 92 | 1009.1 |
| 20260506162003 | 8 | 82 | 0.0 | 1.6 | 0.00 | 3.05 | 1.45 | 93 | 1009.2 |
| 20260506161719 | 8 | 82 | 0.0 | 1.6 | 0.00 | 3.05 | 1.45 | 92 | 1009.2 |
| 20260506161003 | 8 | 82 | 0.0 | 1.6 | 0.00 | 3.05 | 1.45 | 93 | 1009.1 |
| 20260506160503 | 8 | 82 | 0.0 | 1.6 | 0.00 | 3.05 | 1.45 | 93 | 1009.1 |
| 20260506160003 | 8 | 82 | 0.0 | 1.6 | 0.03 | 3.05 | 1.45 | 93 | 1009.1 |
| 20260506155503 | 8 | 82 | 0.0 | 1.6 | 0.03 | 3.05 | 1.45 | 93 | 1009.0 |
| 20260506155003 | 8 | 82 | 0.0 | 1.6 | 0.03 | 3.05 | 1.45 | 93 | 1009.0 |
| 20260506154503 | 8 | 82 | 0.0 | 1.6 | 0.03 | 3.05 | 1.45 | 93 | 1009.1 |
| 20260506154003 | 8 | 82 | 0.0 | 1.6 | 0.03 | 3.05 | 1.45 | 93 | 1009.1 |
| 20260506153718 | 8 | 82 | 0.0 | 1.6 | 0.03 | 3.05 | 1.45 | 93 | 1009.0 |
| 20260506153003 | 8 | 82 | 0.0 | 3.2 | 0.03 | 3.05 | 1.45 | 93 | 1009.1 |
| 20260506152503 | 8 | 82 | 0.0 | 3.2 | 0.03 | 3.05 | 1.45 | 94 | 1008.8 |
| 20260506152003 | 8 | 82 | 0.0 | 3.2 | 0.03 | 3.05 | 1.45 | 94 | 1008.8 |
| 20260506151503 | 8 | 82 | 0.0 | 3.2 | 0.05 | 3.05 | 1.45 | 95 | 1008.8 |
| 20260506151003 | 8 | 82 | 0.0 | 3.2 | 0.05 | 3.05 | 1.45 | 95 | 1008.8 |
| 20260506150504 | 8 | 68 | 0.0 | 3.2 | 0.05 | 3.05 | 1.45 | 95 | 1009.0 |
| 20260506150004 | 8 | 59 | 0.0 | 3.2 | 0.03 | 3.02 | 1.42 | 95 | 1008.9 |
| 20260506145503 | 7 | 31 | 0.0 | 1.6 | 0.03 | 3.02 | 1.42 | 95 | 1008.8 |
| 20260506145003 | 7 | 31 | 0.0 | 4.8 | 0.03 | 3.02 | 1.42 | 95 | 1008.6 |
| 20260506144503 | 7 | 32 | 1.6 | 4.8 | 0.03 | 3.02 | 1.42 | 94 | 1008.7 |
| 20260506144003 | 7 | 32 | 0.0 | 3.2 | 0.03 | 3.02 | 1.42 | 95 | 1008.6 |
| 20260506143503 | 7 | 32 | 0.0 | 3.2 | 0.03 | 3.02 | 1.42 | 94 | 1008.6 |
| 20260506143003 | 7 | 32 | 0.0 | 3.2 | 0.05 | 3.02 | 1.42 | 95 | 1008.7 |
| 20260506142503 | 7 | 32 | 0.0 | 1.6 | 0.05 | 3.02 | 1.42 | 95 | 1008.8 |
| 20260506142003 | 7 | 35 | 1.6 | 3.2 | 0.05 | 3.02 | 1.42 | 95 | 1008.8 |
| 20260506141503 | 7 | 37 | 0.0 | 3.2 | 0.03 | 3.00 | 1.40 | 95 | 1008.6 |
| 20260506141217 | 7 | 44 | 0.0 | 3.2 | 0.03 | 3.00 | 1.40 | 95 | 1008.6 |
| 20260506140503 | 7 | 51 | 0.0 | 1.6 | 0.03 | 3.00 | 1.40 | 95 | 1008.6 |
| 20260506140003 | 7 | 51 | 0.0 | 1.6 | 0.03 | 3.00 | 1.40 | 95 | 1008.5 |
| 20260506135503 | 7 | 51 | 0.0 | 3.2 | 0.03 | 3.00 | 1.40 | 95 | 1008.4 |
| 20260506135003 | 7 | 51 | 0.0 | 3.2 | 0.03 | 3.00 | 1.40 | 95 | 1008.5 |
| 20260506134503 | 7 | 51 | 0.0 | 3.2 | 0.05 | 3.00 | 1.40 | 95 | 1008.4 |
| 20260506134218 | 7 | 51 | 0.0 | 1.6 | 0.05 | 3.00 | 1.40 | 95 | 1008.5 |
| 20260506133717 | 7 | 51 | 0.0 | 1.6 | 0.05 | 3.00 | 1.40 | 95 | 1008.3 |
| 20260506133003 | 7 | 0 | 0.0 | 0.0 | 0.05 | 2.97 | 1.37 | 95 | 1008.3 |
| 20260506132503 | 7 | 51 | 0.0 | 1.6 | 0.05 | 2.97 | 1.37 | 95 | 1008.2 |
| 20260506132003 | 7 | 51 | 0.0 | 1.6 | 0.05 | 2.97 | 1.37 | 95 | 1008.2 |
| 20260506131503 | 7 | 51 | 0.0 | 1.6 | 0.05 | 2.97 | 1.37 | 95 | 1008.1 |
| 20260506131003 | 7 | 51 | 0.0 | 1.6 | 0.05 | 2.97 | 1.37 | 95 | 1008.1 |
| 20260506130503 | 7 | 53 | 0.0 | 1.6 | 0.08 | 2.97 | 1.37 | 95 | 1008.1 |
| 20260506130004 | 6 | 62 | 0.0 | 1.6 | 0.08 | 2.97 | 1.37 | 95 | 1008.0 |
| 20260506125503 | 6 | 74 | 0.0 | 3.2 | 0.08 | 2.97 | 1.37 | 95 | 1008.1 |
| 20260506125006 | 6 | 82 | 0.0 | 3.2 | 0.08 | 2.97 | 1.37 | 95 | 1008.0 |